{"data":{"norad_id":68619,"epoch":"2026-05-25T04:00:03.998880Z","epoch_age_seconds":64103,"freshness":"FRESH","line1":"1 68619U 26073T   26145.16671295 -.01952824  00000+0 -25383-1 0  9997","line2":"2 68619  97.2852 344.7028 0001547  83.3110 328.2995 15.62036495  5998","mean_motion":15.62036495,"eccentricity":0.0001547,"inclination_deg":97.2852,"raan_deg":344.7028,"arg_perigee_deg":83.311,"mean_anomaly_deg":328.2995,"bstar":-0.025383,"rev_number":599,"period_min":92.187346749539,"perigee_km":380.72947022643,"apogee_km":382.82098706997,"semimajor_km":6759.9122286482,"source":"CELESTRAK","updated_at":"2026-05-25T13:38:21.988989Z"}}